Flag for Ireland Weather past 2 weeks in Galway, Ireland

Now
55 °F

Sprinkles. Broken clouds.


Feels Like: 54 °F
Forecast: 54 / 64 °F
Wind: 7 mph from Southeast

Location: Shannon Airport

Current Time: Jul 5, 2015 at 7:08:18 AM

Latest Report: Jul 5, 2015 at 6:30 AM


Visibility: 5 mi

Pressure: 29.89 "Hg

Humidity: 94%

Dew point: 54 °F

Location of GalwayLocation

Historic Weather in Galway — Graph

°F

Galway temperature yesterday

Maximum temperature yesterday: 66 °F (at 2:30 PM)
Minimum temperature yesterday: 57 °F (at 11:00 PM)
Average temperature yesterday: 62 °F

Past Weeks' High & Low Weather Summary

 TemperatureHumidityPressure
High72 °F (Jun 30, 3:00 PM)100% (Jun 20, 6:00 AM)30.21 "Hg (Jun 20, 6:00 AM)
Low48 °F (Jun 22, 5:00 AM)49% (Jul 4, 2:30 PM)29.68 "Hg (Jul 4, 4:30 AM)
Average61 °F79%29.97 "Hg
* Reported Jun 20 6:00 AM — Jul 5 6:00 AM, Galway, Weather by CustomWeather, © 2015

Note: Actual official high and low records may vary slightly from our data, if they occured in-between our weather recording intervals... More about our weather records

Advertising

Galway weather history for previous 24 hours

 ConditionsComfort  
Time TempWeatherWind HumidityBarometerVisibility
6:00 AM
Sun, Jul 5
55 °FPassing clouds.10 mph88%29.89 "HgN/A
5:30 AM54 °FPassing clouds.10 mph94%29.89 "HgN/A
4:30 AM54 °FPassing clouds.10 mph94%29.92 "HgN/A
4:00 AM54 °FPassing clouds.10 mph94%29.92 "HgN/A
3:30 AM54 °FPassing clouds.10 mph94%29.92 "HgN/A
3:00 AM54 °FPassing clouds.7 mph94%29.92 "HgN/A
2:30 AM54 °FPassing clouds.6 mph94%29.95 "HgN/A
2:00 AM54 °FPassing clouds.9 mph94%29.95 "HgN/A
1:30 AM54 °FPassing clouds.7 mph94%29.95 "HgN/A
1:00 AM54 °FPassing clouds.9 mph94%29.95 "HgN/A
12:30 AM55 °FPassing clouds.10 mph88%29.95 "HgN/A
12:00 AM55 °FPassing clouds.12 mph88%29.95 "HgN/A
11:30 PM
Sat, Jul 4
57 °FPassing clouds.9 mph82%29.95 "HgN/A
11:00 PM57 °FPassing clouds.10 mph82%29.95 "HgN/A
10:30 PM59 °FScattered clouds.10 mph77%29.95 "HgN/A
10:00 PM59 °FScattered clouds.13 mph72%29.95 "HgN/A
9:30 PM61 °FPassing clouds.10 mph68%29.95 "HgN/A
9:00 PM61 °FPassing clouds.14 mph68%29.95 "HgN/A
8:30 PM63 °FScattered clouds.15 mph68%29.92 "HgN/A
8:00 PM61 °FPassing clouds.13 mph72%29.92 "HgN/A
7:30 PM64 °FScattered clouds.13 mph60%29.95 "HgN/A
7:00 PM61 °FScattered clouds.14 mph68%29.95 "HgN/A
6:30 PM59 °FPartly sunny.16 mph77%29.95 "HgN/A
6:00 PM64 °FPartly sunny.14 mph56%29.95 "HgN/A
5:30 PM63 °FPartly sunny.12 mph59%29.95 "HgN/A
5:00 PM64 °FPartly sunny.17 mph56%29.92 "HgN/A
4:30 PM64 °FPartly sunny.18 mph52%29.92 "HgN/A
4:00 PM66 °FPartly sunny.17 mph52%29.92 "HgN/A
3:30 PM64 °FPartly sunny.15 mph52%29.92 "HgN/A
3:00 PM66 °FScattered clouds.18 mph49%29.92 "HgN/A
2:30 PM66 °FPartly sunny.17 mph49%29.92 "HgN/A
2:00 PM64 °FPartly sunny.14 mph56%29.89 "HgN/A
1:30 PM64 °FPartly sunny.17 mph52%29.89 "HgN/A
1:00 PM64 °FScattered clouds.13 mph64%29.89 "HgN/A
12:30 PM64 °FScattered clouds.13 mph60%29.89 "HgN/A
12:00 PM63 °FPartly sunny.15 mph64%29.89 "HgN/A
11:30 AM64 °FPartly sunny.15 mph64%29.86 "HgN/A
11:00 AM63 °FPartly sunny.15 mph68%29.86 "HgN/A
10:30 AM61 °FPartly sunny.16 mph72%29.86 "HgN/A
10:00 AM61 °FPartly sunny.14 mph77%29.83 "HgN/A
9:30 AM63 °FPartly sunny.16 mph77%29.83 "HgN/A
9:00 AM61 °FPartly sunny.14 mph77%29.83 "HgN/A
8:30 AM59 °FBroken clouds.18 mph82%29.80 "HgN/A
8:00 AM59 °FBroken clouds.15 mph88%29.80 "HgN/A
7:30 AM59 °FPartly sunny.14 mph88%29.77 "HgN/A
7:00 AM59 °FBroken clouds.16 mph88%29.74 "HgN/A
Weather by CustomWeather, © 2015

See weather overviewHow to use our weather pages